Erzurum, Turkey

6:05 PM +03 on November 19, 2017 (GMT +0300)
Erzurum

Weather History for LTCE - April, 2013

Change the Weather History Date:

Monday, April 1, 2013

  Actual Average Record
Temperature  
Mean Temperature 42 °F -  
Max Temperature 58 °F 51 °F 66 °F (2001)
Min Temperature 27 °F 33 °F -7 °F (2003)
Degree Days  
Heating Degree Days 22    
Moisture  
Dew Point 31 °F    
Average Humidity 63    
Maximum Humidity 93    
Minimum Humidity 25    
Precipitation  
Precipitation 0.00 in 0.07 in - ()
Sea Level Pressure  
Sea Level Pressure 30.15 in    
Wind  
Wind Speed 4 mph ()    
Max Wind Speed 15 mph    
Max Gust Speed 23 mph    
Visibility 7.2 miles    
Events      
Averages and records for this station are not official NWS values.
T = Trace of Precipitation, MM = Missing Value Source: Averaged Metar Reports

Daily Weather History Graph

Daily Weather History Graph

Search for Another Location

Airport or City:

Trip Planner

Search our weather history database for the weather conditions in past years. The results will help you decide how hot, cold, wet, or windy it might be!

Date:

Astronomy

Apr. 01, 2013 Rise Set
Actual Time 5:59 AM EEST 6:39 PM EEST
Civil Twilight 5:32 AM EEST 7:06 PM EEST
Nautical Twilight 5:00 AM EEST 7:39 PM EEST
Astronomical Twilight 4:26 AM EEST 8:12 PM EEST
Moon No Moon Rise 9:24 AM EEST (4/1)
Length of Visible Light 13h 34m
Length of Day
12h 40m
Waning Gibbous, 70% of the Moon is Illuminated
Apr 1
Waning Gibbous
Apr 3
Last Quarter
Apr 10
New
Apr 18
First Quarter
Apr 25
Full

Hourly Weather History & Observations

Time (EEST) Temp. Windchill Dew Point Humidity Pressure Visibility Wind Dir Wind Speed Gust Speed Precip Events Conditions
12:20 AM 32.0 °F 28.7 °F 28.4 °F 87% 30.21 in - SSE 3.5 mph - N/A   Clear
12:50 AM 32.0 °F - 28.4 °F 87% 30.21 in - SW 2.3 mph - N/A   Clear
1:20 AM 32.0 °F - 28.4 °F 87% 30.21 in - Variable 1.2 mph - N/A   Clear
1:50 AM 32.0 °F - 28.4 °F 87% 30.21 in - Variable 1.2 mph - N/A   Clear
2:20 AM 30.2 °F - 26.6 °F 86% 30.21 in - Variable 1.2 mph - N/A   Clear
3:00 AM 30 °F - 27 °F 84%  in 6 mi WSW 1.2 mph - -  
3:20 AM 30.2 °F - 26.6 °F 86% 30.21 in - Calm Calm - N/A   Clear
3:50 AM 28.4 °F 23.3 °F 26.6 °F 93% 30.21 in - WSW 4.6 mph - N/A   Clear
4:20 AM 28.4 °F 23.3 °F 24.8 °F 86% 30.21 in - SW 4.6 mph - N/A   Clear
4:50 AM 28.4 °F - 24.8 °F 86% 30.21 in - Variable 1.2 mph - N/A   Clear
5:20 AM 28.4 °F - 26.6 °F 93% 30.21 in - Variable 1.2 mph - N/A   Clear
5:50 AM 28.4 °F 24.6 °F 24.8 °F 86% 30.21 in - West 3.5 mph - N/A   Clear
6:20 AM 28.4 °F - 24.8 °F 86% 30.21 in - Variable 2.3 mph - N/A   Clear
6:50 AM 28.4 °F - 26.6 °F 93% 30.21 in - Calm Calm - N/A   Clear
7:20 AM 33.8 °F - 28.4 °F 81% 30.21 in - Variable 2.3 mph - N/A   Clear
7:50 AM 37.4 °F - 32.0 °F 81% 30.21 in - Variable 2.3 mph - N/A   Clear
8:20 AM 42.8 °F 41.1 °F 33.8 °F 70% 30.21 in - South 3.5 mph - N/A   Clear
8:50 AM 46.4 °F 44.3 °F 33.8 °F 62% 30.21 in - ESE 4.6 mph - N/A   Clear
9:00 AM 46 °F - 33 °F 49%  in 12 mi ESE 4.6 mph - -   Clear
9:20 AM 48.2 °F - 32.0 °F 54% 30.21 in - ENE 15.0 mph - N/A   Clear
9:50 AM 48.2 °F - 30.2 °F 50% 30.21 in - East 11.5 mph - N/A   Clear
10:20 AM 50.0 °F - 32.0 °F 50% 30.18 in - East 11.5 mph - N/A   Clear
10:50 AM 51.8 °F - 30.2 °F 44% 30.18 in - East 9.2 mph - N/A   Clear
11:20 AM 53.6 °F - 28.4 °F 38% 30.18 in - ENE 9.2 mph - N/A   Clear
11:50 AM 55.4 °F - 30.2 °F 38% 30.18 in - NE 6.9 mph - N/A   Clear
12:20 PM 55.4 °F - 32.0 °F 41% 30.15 in - NE 6.9 mph - N/A   Clear
12:50 PM 55.4 °F - 30.2 °F 38% 30.15 in - NE 5.8 mph - N/A   Clear
1:20 PM 55.4 °F - 32.0 °F 41% 30.15 in 6.2 mi NE 6.9 mph - N/A   Mostly Cloudy
1:50 PM 55.4 °F - 33.8 °F 44% 30.15 in 6.2 mi NE 8.1 mph - N/A   Mostly Cloudy
2:20 PM 57.2 °F - 32.0 °F 38% 30.12 in 6.2 mi SW 5.8 mph - N/A   Mostly Cloudy
2:50 PM 59.0 °F - 32.0 °F 36% 30.12 in 6.2 mi SSW 5.8 mph - N/A   Mostly Cloudy
3:00 PM 58 °F - 32 °F 25%  in 12 mi SSW 5.8 mph - -   Partly Cloudy
3:20 PM 59.0 °F - 33.8 °F 39% 30.12 in 6.2 mi SW 9.2 mph - N/A   Mostly Cloudy
3:50 PM 57.2 °F - 32.0 °F 38% 30.12 in 6.2 mi SSW 10.4 mph - N/A   Mostly Cloudy
4:20 PM 57.2 °F - 33.8 °F 41% 30.12 in 6.2 mi SW 10.4 mph - N/A   Mostly Cloudy
4:50 PM 57.2 °F - 32.0 °F 38% 30.09 in 6.2 mi SW 9.2 mph - N/A   Mostly Cloudy
5:20 PM 57.2 °F - 33.8 °F 41% 30.09 in 6.2 mi SW 9.2 mph 23.0 mph N/A   Mostly Cloudy
5:50 PM 55.4 °F - 33.8 °F 44% 30.09 in 6.2 mi SW 9.2 mph - N/A   Mostly Cloudy
6:20 PM 51.8 °F - 33.8 °F 50% 30.09 in 6.2 mi SSW 4.6 mph - N/A   Mostly Cloudy
6:50 PM 50.0 °F - 33.8 °F 54% 30.09 in 6.2 mi WSW 6.9 mph - N/A   Mostly Cloudy
7:20 PM 50.0 °F - 33.8 °F 54% 30.09 in 6.2 mi SW 4.6 mph - N/A   Mostly Cloudy
7:50 PM 48.2 °F - 33.8 °F 58% 30.09 in - SW 5.8 mph - N/A   Clear
8:20 PM 46.4 °F 43.5 °F 33.8 °F 62% 30.09 in - SW 5.8 mph - N/A   Clear
8:50 PM 44.6 °F 40.7 °F 33.8 °F 66% 30.09 in - West 6.9 mph - N/A   Clear
9:00 PM 45 °F - 34 °F 55%  in 12 mi West 6.9 mph - -  
9:20 PM 41.0 °F 38.0 °F 33.8 °F 76% 30.09 in - WNW 4.6 mph - N/A   Clear
9:50 PM 41.0 °F - 33.8 °F 76% 30.09 in - Variable 1.2 mph - N/A   Clear
10:20 PM 41.0 °F - 33.8 °F 76% 30.09 in - Variable 1.2 mph - N/A   Clear
10:50 PM 37.4 °F - 33.8 °F 87% 30.09 in - Variable 1.2 mph - N/A   Clear
11:20 PM 39.2 °F 35.9 °F 33.8 °F 81% 30.09 in - WSW 4.6 mph - N/A   Clear
11:50 PM 35.6 °F - 32.0 °F 87% 30.09 in - Variable 2.3 mph - N/A   Clear